TimeCDT,TemperatureF,Dew PointF,Humidity,Sea Level PressureIn,VisibilityMPH,Wind Direction,Wind SpeedMPH,Gust SpeedMPH,PrecipitationIn,Events,Conditions,WindDirDegrees,DateUTC
12:15 AM,54.5,16.0,22,29.90,10.0,South,5.8,-,N/A,,Clear,190,2013-03-16 05:15:00
12:35 AM,52.9,15.8,23,29.89,10.0,SSE,4.6,-,N/A,,Clear,150,2013-03-16 05:35:00
12:55 AM,53.6,16.3,23,29.89,10.0,Calm,Calm,-,N/A,,Clear,0,2013-03-16 05:55:00
1:15 AM,52.7,15.8,23,29.88,10.0,SSW,4.6,-,N/A,,Clear,200,2013-03-16 06:15:00
1:35 AM,47.3,16.0,29,29.88,10.0,WSW,3.5,-,N/A,,Clear,240,2013-03-16 06:35:00
1:55 AM,46.0,16.2,30,29.88,10.0,Calm,Calm,-,N/A,,Clear,0,2013-03-16 06:55:00
2:15 AM,48.2,16.7,29,29.88,10.0,West,3.5,-,N/A,,Clear,270,2013-03-16 07:15:00
2:35 AM,46.9,16.2,29,29.87,10.0,South,3.5,-,N/A,,Clear,180,2013-03-16 07:35:00
2:55 AM,45.7,16.5,31,29.86,10.0,Calm,Calm,-,N/A,,Clear,0,2013-03-16 07:55:00
3:15 AM,45.9,17.8,33,29.85,10.0,Calm,Calm,-,N/A,,Clear,0,2013-03-16 08:15:00
3:35 AM,44.1,16.2,33,29.85,10.0,Calm,Calm,-,N/A,,Clear,0,2013-03-16 08:35:00
3:55 AM,42.8,16.9,35,29.84,10.0,North,4.6,-,N/A,,Clear,350,2013-03-16 08:55:00
4:15 AM,45.9,18.1,33,29.84,10.0,Calm,Calm,-,N/A,,Clear,0,2013-03-16 09:15:00
4:35 AM,44.8,19.2,36,29.84,10.0,Calm,Calm,-,N/A,,Clear,0,2013-03-16 09:35:00
4:55 AM,44.4,19.0,36,29.83,10.0,Calm,Calm,-,N/A,,Clear,0,2013-03-16 09:55:00
5:15 AM,44.2,18.7,36,29.83,10.0,Calm,Calm,-,N/A,,Clear,0,2013-03-16 10:15:00
5:35 AM,43.7,19.2,38,29.83,10.0,Calm,Calm,-,N/A,,Clear,0,2013-03-16 10:35:00
5:55 AM,43.2,22.3,44,29.83,10.0,Calm,Calm,-,N/A,,Clear,0,2013-03-16 10:55:00
6:15 AM,43.2,21.2,42,29.83,10.0,East,4.6,-,N/A,,Clear,90,2013-03-16 11:15:00
6:35 AM,42.1,20.3,42,29.83,10.0,ESE,4.6,-,N/A,,Clear,110,2013-03-16 11:35:00
6:55 AM,41.9,20.5,42,29.84,10.0,Calm,Calm,-,N/A,,Clear,0,2013-03-16 11:55:00
7:15 AM,41.2,23.5,50,29.84,10.0,Calm,Calm,-,N/A,,Clear,0,2013-03-16 12:15:00
7:35 AM,40.8,23.7,51,29.84,10.0,Calm,Calm,-,N/A,,Clear,0,2013-03-16 12:35:00
7:55 AM,39.9,25.3,56,29.84,10.0,Calm,Calm,-,N/A,,Clear,0,2013-03-16 12:55:00
8:15 AM,39.6,26.1,58,29.84,10.0,Calm,Calm,-,N/A,,Clear,0,2013-03-16 13:15:00
8:35 AM,41.0,27.5,59,29.85,10.0,Calm,Calm,-,N/A,,Clear,0,2013-03-16 13:35:00
8:55 AM,42.8,28.6,57,29.85,10.0,Calm,Calm,-,N/A,,Clear,0,2013-03-16 13:55:00
9:15 AM,47.8,26.1,43,29.85,10.0,Calm,Calm,-,N/A,,Clear,0,2013-03-16 14:15:00
9:35 AM,51.1,25.3,37,29.85,10.0,Calm,Calm,-,N/A,,Clear,0,2013-03-16 14:35:00
9:55 AM,54.3,28.6,37,29.86,10.0,Calm,Calm,-,N/A,,Clear,0,2013-03-16 14:55:00
10:15 AM,58.1,30.7,35,29.85,10.0,Calm,Calm,-,N/A,,Clear,0,2013-03-16 15:15:00
10:35 AM,61.9,29.3,29,29.85,10.0,Calm,Calm,-,N/A,,Clear,0,2013-03-16 15:35:00
10:55 AM,66.2,29.1,25,29.85,10.0,Calm,Calm,-,N/A,,Clear,0,2013-03-16 15:55:00
11:15 AM,70.3,25.5,19,29.85,10.0,Calm,Calm,-,N/A,,Clear,0,2013-03-16 16:15:00
11:55 AM,85.1,24.4,11,29.84,10.0,WSW,19.6,-,N/A,,Clear,250,2013-03-16 16:55:00
12:15 PM,86.7,23.2,10,29.84,10.0,West,16.1,-,N/A,,Clear,260,2013-03-16 17:15:00
12:35 PM,87.8,23.5,10,29.83,10.0,West,18.4,-,N/A,,Clear,280,2013-03-16 17:35:00
12:55 PM,88.9,22.5,9,29.82,10.0,West,16.1,25.3,N/A,,Clear,270,2013-03-16 17:55:00
1:55 PM,91.8,22.8,8,29.79,10.0,West,27.6,35.7,N/A,,Clear,270,2013-03-16 18:55:00
2:35 PM,87.8,20.1,8,29.77,10.0,West,21.9,28.8,N/A,,Clear,260,2013-03-16 19:35:00
3:15 PM,89.4,20.7,8,29.75,10.0,SW,24.2,32.2,N/A,,Clear,230,2013-03-16 20:15:00
3:55 PM,90.1,20.5,8,29.73,10.0,WSW,19.6,34.5,N/A,,Clear,250,2013-03-16 20:55:00
4:35 PM,89.6,19.4,8,29.72,10.0,WSW,19.6,26.5,N/A,,Clear,240,2013-03-16 21:35:00
4:55 PM,89.1,19.6,8,29.71,10.0,WSW,18.4,26.5,N/A,,Clear,250,2013-03-16 21:55:00
6:15 PM,86.9,18.5,8,29.70,10.0,West,19.6,23.0,N/A,,Clear,270,2013-03-16 23:15:00
6:35 PM,84.2,16.7,8,29.69,10.0,West,15.0,-,N/A,,Clear,270,2013-03-16 23:35:00
6:55 PM,85.5,17.2,8,29.70,10.0,West,16.1,-,N/A,,Clear,260,2013-03-16 23:55:00
7:55 PM,79.3,17.6,10,29.71,10.0,West,12.7,-,N/A,,Clear,260,2013-03-17 00:55:00
8:55 PM,67.5,14.2,13,29.72,10.0,WSW,10.4,-,N/A,,Clear,240,2013-03-17 01:55:00
9:15 PM,68.4,14.5,13,29.72,10.0,WSW,10.4,-,N/A,,Clear,240,2013-03-17 02:15:00
9:35 PM,67.5,14.4,13,29.72,10.0,SW,10.4,-,N/A,,Clear,230,2013-03-17 02:35:00
10:15 PM,62.4,15.1,16,29.72,10.0,Calm,Calm,-,N/A,,Clear,0,2013-03-17 03:15:00
10:35 PM,60.4,13.5,16,29.73,10.0,SSW,10.4,-,N/A,,Clear,210,2013-03-17 03:35:00
10:55 PM,58.3,13.3,17,29.73,10.0,SSW,9.2,-,N/A,,Clear,200,2013-03-17 03:55:00
11:15 PM,58.5,13.5,17,29.73,10.0,SSW,10.4,-,N/A,,Clear,200,2013-03-17 04:15:00
11:35 PM,60.1,13.8,16,29.73,10.0,SSW,10.4,-,N/A,,Clear,200,2013-03-17 04:35:00
11:55 PM,58.5,13.1,17,29.73,10.0,SSW,10.4,-,N/A,,Clear,200,2013-03-17 04:55:00